Retour au catalogue

KIKU 4

ETS 3

ActifScienceLEO
NORAD 13492·PAYLOAD·🇯🇵 Japan

Lancé Sep 3, 1982 depuis Tanegashima Space Center

Loading…

Prochains Passages (prochaines 24 heures)

TLE

FraisSource: Space-Track

Époque: Sep 14, 2026, 12:23 UTC

1 13492U 82087A   26257.51599291 -.00000094  00000-0  25274-4 0  9995
2 13492  44.6154 275.1767 0011089 181.5443 340.1782 13.71280479204873

Suivez KIKU 4 en temps réel avec AllMySat

Download on the App Store